Location: Bannatyne
(13.0833°N, 59.5333°W)
Time: 16:50:57
(UTC+00:00)

deb Explorer IX - Pass Details

Date: 27 January 2020
Orbit: 549 x 1099 km, 38.8° (Epoch: 22 February)

Event Time Altitude Azimuth Distance (km) Brightness Sun altitude
Rises 00:01:46 0° 264° (W) 3,448 ? -30.2°
Reaches altitude 10° 00:04:39 10° 277° (W) 2,603 ? -30.8°
Maximum altitude 00:09:48 26° 331° (NNW) 1,853 ? -32.1°
Enters shadow 00:10:32 25° 341° (NNW) 1,888 ? -32.2°
Drops below altitude 10° 00:15:27 10° 25° (NNE) 2,865 - -33.4°
Sets 00:18:48 0° 38° (NE) 3,867 - -34.2°
